Regional Weather Roundup
Issued by NWS Newport/Morehead, NC

Current Version | Previous Version | Text Only | Print | Product List | Glossary On
Versions: 1 2 3 4 5 6 7 8 9 10 11 12 13 14 15 16 17 18 19 20 21 22 23 24 25 26 27 28 29 30 31 32 33 34 35 36 37 38 39 40 41 42 43 44 45 46 47 48 49 50
867 ASUS42 KMHX 220713 RWRMHX WEATHER ROUNDUP FOR EASTERN NORTH CAROLINA NATIONAL WEATHER SERVICE NEWPORT/MOREHEAD CITY NC 300 AM EDT SAT JUL 22 2017 NOTE: "FAIR" INDICATES FEW OR NO CLOUDS BELOW 12,000 FEET WITH NO SIGNIFICANT WEATHER AND/OR OBSTRUCTIONS TO VISIBILITY NCZ015>017-031-032-045>047-102-103-220800- NORTH COAST CITY SKY/WX TMP DP RH WIND PRES REMARKS EDENTON PTCLDY 82 75 79 SW10 29.96F ELIZABETH CITY MOCLDY 79 77 94 SW9 29.94F KITTY HAWK MOSUNNY 80 73 77 SW6 29.94F MANTEO PTCLDY 80 74 81 W15 29.95F $$ NCZ045>047-081-094-103-104-220800- CENTRAL COAST CITY SKY/WX TMP DP RH WIND PRES REMARKS FRISCO PTCLDY 77 74 90 W9 29.99S $$ NCZ095-097-098-100-101-220800- SOUTHERN COAST CITY SKY/WX TMP DP RH WIND PRES REMARKS BEAUFORT CLEAR 81 79 94 SW14 29.98F CEDAR ISLAND NOT AVBL JACKSONVILLE PTCLDY 77 76 96 VRB3 29.97F PINEY ISLAND MOSUNNY N/A N/A N/A SW8 29.97F WILMINGTON CLEAR 78 76 93 SW7 29.99F $$ NCZ011>013-027>030-043-044-078>080-089-090>093-098-220800- COASTAL PLAIN CITY SKY/WX TMP DP RH WIND PRES REMARKS AHOSKIE N/A 76 72 88 CALM 29.94F CLINTON CLEAR 77 75 95 CALM 29.98F ELIZABETHTOWN NOT AVBL GOLDSBORO CLOUDY 78 78 100 SW5 29.95F GREENVILLE MOCLDY 79 73 83 SW6 29.98F HAVELOCK CLEAR 77 74 90 SW6 29.99F KENANSVILLE CLEAR 77 73 88 SW3 29.98S KINSTON PTCLDY 78 73 86 SW7 29.97F NEW BERN CLEAR 76 75 97 S6 29.99F RICHLANDS PTCLDY 75 74 96 SW3 29.99S ROCKY MOUNT PTCLDY 76 73 91 S6 29.96F WASHINGTON PTCLDY 78 73 85 SW7 29.96F WHITEVILLE PTCLDY 77 74 91 SW3 29.99F $$ AMZ130-135-150-152-154-156-158-170-250-252-270-ANZ085-086-088-633-658-670-220800- MARINE OBSERVATIONS STATION/POSITION TIME TEMP WIND PRES WAVE SWELL AIR SEA DIR/SP/G HT/PER HT/PER (UTC) (F) (DEG/KT/KT) (MB) (FT/S) (FT/S) CHESAPEAKE LIGHT NOT AVBL 64 E VA BEACH 0650 81 80 220/ 14/ 16 1013.6 3/ 5 2/ 8 DUCK 0642 81 60 230/ 13/ 19 1013.5 2 E DUCK 0700 62 N/A 2/11 OREGON INLET 0648 220/ 18/ 22 N/A 13E OREGON INLT 0648 81 N/A 3/ 4 2/14 HATTERAS CG 0642 77 78 230/ 8/ 11 1015.3 DIAMOND BUOY 0650 83 84 240/ 19/ 23 1014.9 5/ 5 2/ 9 CAPE LOOKOUT 0700 81 230/ 10/ 13 1015.0 BEAUFORT LAB 0642 81 81 240/ 4/ 11 1014.8 30 SE NEW RVR IN 0608 80 81 250/ 12/ 16 1016.1 30 SE NEW RVR IN 0643 81 N/A 4/ 9 2/11 27 SE WRIGHTSVLE 0608 81 81 220/ 12/ 17 1015.9 5 SE WRIGHTSVLE 0608 80 80 220/ 8/ 12 1015.8 225 S CAPE HAT 0650 82 83 220/ 14/ 16 1017.5 4/ 9 3/ 9 41 SE CHARLESTON 0650 83 84 210/ 14/ 17 1015.6 3/ 9 2/ 9 $$

USA.gov is the U.S. government's official web portal to all federal, state and local government web resources and services.